Wind_Speed
23 24 26 27 27 27 27 27 25 22 20 18 15 11 9 10 10 12 25 27 33 31 21 24 30 41 48 44 44 40 24 33 32 29 22 19 16 21 18 18 21 26 20 21 26
24 27 27 27 27 26 26 25 24 20 19 18 15 11 6 5 4 9 24 24 32 31 24 14 25 33 34 36 43 46 29 29 27 25 20 15 15 22 16 13 20 25 25 20 24
25 27 27 28 27 25 24 24 24 19 17 17 18 15 6 1 1 6 17 21 33 33 32 21 20 24 29 32 37 38 39 25 28 23 21 15 18 18 11 11 19 26 26 25 21
24 26 27 27 27 25 23 22 23 19 15 15 16 15 10 1 5 6 11 17 26 33 31 23 21 21 24 24 36 29 30 29 21 27 18 12 11 13 13 14 18 18 23 26 26
24 26 28 27 26 24 22 21 23 20 16 14 15 14 11 7 10 2 5 12 25 31 31 24 18 20 24 28 27 29 33 23 33 22 22 17 15 11 16 21 18 17 20 25 27
23 24 26 28 25 23 21 20 24 22 15 12 13 12 11 4 7 8 7 11 29 29 31 26 22 15 19 21 27 19 22 26 36 30 28 25 17 21 16 22 23 21 19 21 23
22 23 25 28 26 22 21 18 23 21 13 11 11 9 7 7 5 5 2 15 28 27 32 30 27 16 16 19 25 13 21 19 21 21 21 22 19 31 16 22 25 27 21 22 23
21 22 24 27 26 22 19 15 22 20 13 13 10 8 5 5 6 4 5 14 28 24 29 37 19 25 18 15 20 21 18 19 23 22 19 23 26 22 26 21 23 21 26 23 25
20 21 23 25 25 21 17 12 21 20 14 15 10 10 6 7 8 8 6 21 23 24 26 23 22 19 20 19 17 23 23 25 18 19 17 26 19 19 19 26 25 24 24 25 25
19 20 22 24 23 21 15 10 18 20 16 12 14 8 8 8 9 14 6 21 25 26 24 22 25 15 17 22 23 19 22 26 22 13 21 18 23 17 25 24 27 26 26 27 26
18 19 21 22 22 20 15 9 11 22 20 17 14 13 10 11 13 11 11 20 25 9 17 23 20 17 17 18 3 19 21 19 22 10 13 22 21 25 23 24 28 27 25 28 31
18 18 20 21 20 19 15 7 14 14 20 18 17 16 12 10 13 12 19 19 22 13 17 17 11 11 16 17 11 13 17 15 13 14 12 15 23 24 25 26 24 26 25 24 29
16 17 18 20 18 18 13 6 6 14 15 16 16 16 13 9 14 11 18 22 11 12 17 12 13 11 14 16 15 13 15 17 8 12 13 13 22 24 27 26 27 30 31 34 39
15 16 18 18 16 17 12 6 4 6 7 12 11 9 9 12 9 12 14 20 11 11 17 18 15 17 15 16 15 15 14 11 11 9 13 17 9 19 21 27 28 29 33 35 37
12 15 16 16 16 17 12 7 6 3 1 7 9 9 12 5 11 5 14 9 14 15 14 9 9 21 16 13 14 9 18 10 9 12 12 12 9 21 16 19 24 24 27 30 38
10 13 16 15 16 16 12 5 5 2 3 2 5 6 7 3 5 10 11 9 9 12 18 7 12 15 13 15 17 12 11 12 10 11 8 19 16 15 20 15 16 18 20 21 27
8 12 15 16 16 13 11 4 3 4 1 3 1 4 2 1 1 13 8 11 7 8 15 13 12 22 22 16 17 11 15 8 7 7 9 5 15 27 7 10 12 10 15 18 24
5 10 13 15 14 12 10 6 5 3 2 2 3 1 2 2 1 13 10 13 15 14 12 17 7 22 21 18 14 18 19 7 9 9 11 8 10 15 15 19 22 16 12 21 25
3 8 11 13 14 12 9 9 3 1 1 1 4 2 3 5 4 6 16 18 17 17 11 15 13 21 15 20 17 20 22 19 6 4 4 10 12 17 17 9 10 11 14 12 16
3 4 9 10 12 12 12 8 4 2 3 3 3 5 5 8 7 6 10 13 22 22 15 7 2 19 23 26 28 11 16 10 8 4 8 8 9 12 8 11 7 4 10 13 16
4 2 6 7 8 10 11 9 8 7 4 3 5 7 8 9 12 10 8 10 20 19 21 11 9 7 24 24 28 26 14 11 7 16 4 6 5 8 10 12 8 5 3 8 11
5 3 3 4 5 10 10 11 11 11 10 9 9 10 11 9 12 15 15 13 8 20 24 21 9 9 18 19 22 25 26 20 17 9 13 14 7 7 9 14 16 5 3 3 5
7 4 5 2 5 9 11 13 12 15 14 13 12 14 10 10 10 12 17 16 20 16 16 25 16 9 7 12 23 26 30 23 23 19 12 11 6 14 18 14 18 18 15 12 8
8 5 4 9 7 9 12 12 15 16 18 16 19 18 13 16 15 16 17 17 20 22 23 22 27 25 16 4 13 25 27 29 27 22 23 28 21 13 12 14 19 23 12 18 17
10 8 6 4 7 9 12 14 14 18 20 20 19 13 13 15 16 21 23 22 24 25 21 20 16 31 25 14 12 12 16 27 35 38 26 24 26 26 25 23 20 18 27 29 33
13 10 8 7 7 10 11 14 15 18 20 18 17 16 18 17 20 26 24 24 15 14 22 23 12 17 19 22 15 15 16 18 25 28 32 31 37 26 22 23 25 24 23 23 27
17 12 9 5 8 9 12 14 16 18 18 21 24 25 24 21 22 22 23 24 28 25 14 23 22 14 4 9 8 16 33 27 25 25 24 31 28 23 24 24 24 26 29 31 27
Wind_Direction
330 333 335 339 336 339 345 344 342 341 344 348 349 339 309 289 268 258 219 212 206 215 213 186 190 198 202 191 197 189 202 207 208 202 199 197 193 194 192 202 201 196 199 201 199
331 329 334 338 338 340 346 346 346 343 346 359 358 351 335 313 265 262 220 228 198 207 198 176 187 194 199 197 195 197 202 199 199 201 195 199 196 208 196 198 202 207 208 201 194
335 333 333 336 339 342 347 349 347 341 342 357 7 10 0 356 332 241 233 205 189 199 196 184 178 196 201 211 193 202 205 195 209 184 204 193 188 205 188 189 205 207 211 209 203
341 341 339 337 342 342 348 351 350 342 334 349 358 9 7 16 301 228 254 216 191 190 191 181 179 188 196 206 216 206 202 205 201 203 189 194 191 211 195 216 214 214 211 213 212
340 343 344 342 345 343 348 354 353 348 333 339 347 356 8 33 299 335 245 192 180 185 183 180 186 178 201 205 207 213 207 215 205 211 210 208 210 203 214 223 223 222 217 212 211
339 344 346 345 348 347 349 358 357 354 344 343 345 350 26 331 329 331 341 192 175 177 182 175 169 172 192 213 213 210 209 205 216 229 226 223 217 215 215 228 231 227 231 224 213
340 346 348 348 349 351 353 1 3 3 6 3 358 2 20 9 356 11 101 168 173 173 183 179 161 178 185 195 206 211 211 198 211 208 214 214 223 227 208 236 231 233 237 229 222
342 347 349 351 351 353 357 9 12 15 22 18 27 31 16 18 63 65 62 164 171 176 182 193 168 166 168 196 186 206 210 202 206 199 214 214 233 231 226 238 230 229 232 235 227
344 347 351 352 352 355 2 17 23 25 29 31 48 61 26 61 64 103 112 162 165 185 193 182 174 174 175 178 176 191 204 208 201 208 212 223 233 217 226 224 235 231 229 235 238
347 349 353 353 355 358 5 27 28 32 37 49 48 52 61 81 96 108 106 159 171 181 191 158 170 173 175 181 190 185 210 211 215 210 211 230 230 221 230 244 245 236 231 231 234
346 351 354 354 357 1 6 36 29 39 48 60 63 70 71 89 97 124 136 160 177 171 175 161 166 181 181 189 191 209 210 214 214 224 219 230 235 234 234 247 238 236 228 229 231
346 354 355 356 359 3 7 41 67 63 55 54 60 63 74 97 111 127 151 156 169 182 189 152 164 171 182 192 194 178 198 201 205 222 230 234 242 238 233 236 241 234 231 232 224
349 358 357 355 6 5 9 35 137 66 64 49 58 72 65 96 124 142 167 162 164 176 193 176 169 163 175 182 189 182 194 190 194 216 237 244 252 240 236 236 239 237 235 237 229
352 1 358 357 6 5 14 33 121 102 61 44 27 45 53 90 97 141 159 174 168 174 188 163 199 189 184 200 188 194 210 221 206 208 239 215 273 231 235 237 236 237 232 236 231
358 3 5 360 7 9 13 39 91 84 41 12 31 57 66 109 150 163 167 159 205 202 179 223 195 189 191 193 192 212 206 190 208 232 270 230 247 249 246 231 234 239 241 244 237
4 8 8 5 8 6 19 51 72 60 78 39 59 47 65 97 211 174 167 185 175 201 205 234 202 186 188 197 184 215 197 199 223 243 250 236 225 257 237 241 239 241 240 239 247
8 12 14 7 13 8 18 43 46 36 84 34 55 61 42 26 64 186 183 190 166 184 216 233 204 196 198 195 193 180 174 171 208 219 239 247 239 239 231 227 235 238 232 233 228
5 15 20 21 22 15 26 43 56 46 60 54 44 159 213 256 269 204 204 203 212 196 196 214 216 205 211 200 204 203 198 199 214 216 223 187 241 244 244 245 240 253 247 231 215
321 12 20 24 31 30 35 54 43 282 1 317 307 260 233 249 227 226 234 222 213 206 213 202 220 200 202 205 199 201 220 226 269 290 307 227 248 261 244 248 210 227 233 237 233
263 358 19 16 28 29 39 49 41 9 304 301 268 241 274 242 252 229 231 235 218 211 217 208 156 199 203 209 206 197 196 197 212 238 237 239 250 262 210 211 217 243 228 239 241
253 278 355 8 11 21 28 19 10 357 332 289 269 272 265 261 255 236 250 252 214 221 217 233 243 204 207 213 210 217 224 211 227 229 278 257 220 197 175 172 178 202 226 228 242
248 244 301 355 354 358 356 348 351 349 335 312 298 275 264 262 275 253 252 245 248 217 213 216 226 211 219 225 223 222 227 222 222 209 235 279 280 239 237 227 203 222 246 260 223
225 239 240 305 343 336 329 329 329 327 319 303 293 287 276 271 277 266 264 254 255 230 215 212 216 218 201 218 234 218 222 217 225 233 220 215 234 231 245 241 238 255 246 246 220
212 224 237 234 293 305 308 316 321 318 313 302 292 288 279 276 269 269 279 273 250 253 228 200 216 214 227 257 212 216 219 220 218 229 231 233 247 246 257 280 268 242 245 247 236
210 219 224 253 279 297 308 309 313 312 312 305 297 296 279 274 274 275 282 270 265 263 250 237 216 214 218 235 227 232 225 218 222 229 231 242 248 255 263 261 253 249 270 252 270
221 223 235 263 283 298 312 317 316 313 313 304 284 285 282 280 285 284 280 260 273 251 250 242 238 235 250 232 225 238 224 221 227 235 242 247 258 261 267 263 261 263 269 269 275
205 221 246 270 292 301 323 324 319 318 314 308 298 298 301 292 290 279 273 267 258 254 258 250 227 200 209 249 266 243 237 234 238 237 242 243 263 268 270 270 269 264 263 271 277
Height
3096 3092 3086 3081 3075 3070 3064 3058 3053 3047 3043 3039 3036 3033 3031 3030 3030 3031 3035 3038 3042 3047 3050 3057 3063 3071 3078 3084 3092 3101 3102 3105 3111 3117 3124 3124 3127 3130 3133 3135 3138 3141 3143 3147 3150
3094 3090 3085 3079 3073 3069 3063 3057 3052 3047 3043 3039 3035 3032 3030 3030 3029 3030 3032 3033 3038 3044 3051 3055 3062 3068 3074 3078 3087 3093 3098 3103 3112 3117 3121 3122 3127 3128 3132 3134 3137 3139 3143 3146 3148
3092 3088 3083 3077 3072 3067 3062 3056 3051 3047 3042 3039 3035 3032 3030 3029 3029 3028 3030 3033 3036 3041 3049 3055 3061 3068 3073 3081 3080 3090 3095 3105 3107 3106 3115 3120 3124 3126 3132 3133 3134 3137 3141 3145 3148
3091 3086 3081 3076 3070 3066 3060 3055 3051 3046 3042 3040 3036 3034 3031 3030 3028 3028 3028 3029 3033 3041 3050 3056 3061 3067 3074 3078 3077 3088 3095 3098 3105 3106 3109 3116 3120 3125 3131 3130 3133 3136 3140 3143 3146
3090 3085 3080 3075 3069 3065 3060 3055 3050 3045 3042 3039 3037 3034 3033 3033 3029 3028 3028 3028 3034 3043 3052 3058 3062 3069 3074 3081 3085 3087 3092 3096 3099 3104 3111 3114 3119 3125 3126 3128 3131 3135 3138 3140 3144
3088 3084 3079 3074 3069 3064 3059 3055 3050 3045 3041 3038 3037 3035 3033 3034 3030 3030 3028 3031 3036 3044 3052 3058 3064 3071 3075 3079 3082 3088 3087 3094 3099 3104 3107 3114 3118 3120 3125 3125 3129 3133 3136 3139 3142
3087 3082 3078 3073 3068 3063 3059 3055 3050 3045 3041 3038 3036 3035 3034 3034 3032 3031 3031 3034 3039 3047 3054 3060 3062 3068 3074 3079 3083 3088 3090 3093 3096 3101 3107 3111 3114 3114 3124 3122 3127 3131 3134 3137 3140
3086 3081 3077 3073 3068 3063 3059 3056 3051 3046 3042 3039 3037 3036 3036 3034 3034 3034 3036 3038 3044 3049 3053 3059 3063 3069 3074 3080 3082 3087 3090 3089 3097 3100 3103 3107 3109 3115 3118 3121 3123 3128 3132 3134 3136
3085 3081 3077 3073 3069 3063 3059 3056 3052 3048 3043 3041 3039 3037 3039 3036 3036 3037 3039 3043 3048 3052 3056 3060 3066 3070 3073 3077 3082 3086 3088 3094 3096 3096 3102 3104 3108 3113 3116 3116 3119 3124 3129 3131 3132
3085 3080 3076 3073 3069 3064 3060 3057 3054 3050 3046 3043 3041 3043 3040 3040 3039 3040 3042 3046 3051 3054 3058 3060 3066 3070 3075 3078 3080 3083 3088 3091 3093 3095 3099 3102 3105 3111 3110 3111 3115 3119 3124 3128 3129
3084 3080 3076 3072 3069 3065 3060 3058 3058 3054 3049 3047 3046 3044 3043 3042 3042 3045 3047 3051 3054 3057 3061 3063 3067 3069 3073 3078 3079 3084 3087 3088 3093 3094 3097 3100 3103 3106 3108 3108 3110 3113 3118 3122 3126
3084 3079 3075 3072 3069 3065 3061 3059 3058 3057 3053 3051 3050 3048 3047 3046 3047 3049 3051 3055 3057 3060 3062 3067 3069 3072 3076 3079 3081 3083 3086 3088 3093 3094 3096 3099 3099 3101 3103 3104 3106 3107 3110 3115 3122
3083 3078 3075 3072 3068 3066 3062 3060 3058 3057 3056 3056 3055 3053 3052 3051 3050 3052 3054 3056 3061 3062 3063 3067 3069 3070 3074 3078 3081 3083 3086 3089 3092 3092 3094 3096 3094 3094 3095 3097 3099 3100 3103 3106 3112
3083 3078 3075 3072 3070 3066 3062 3060 3059 3058 3059 3062 3059 3058 3057 3056 3056 3055 3057 3059 3061 3064 3065 3067 3068 3070 3075 3078 3081 3082 3085 3087 3089 3093 3093 3093 3086 3084 3088 3090 3092 3094 3096 3099 3103
3082 3079 3075 3071 3068 3066 3064 3061 3060 3060 3061 3064 3062 3059 3057 3058 3058 3059 3060 3061 3064 3065 3069 3070 3069 3071 3075 3077 3078 3083 3084 3087 3089 3091 3091 3091 3093 3083 3085 3086 3088 3090 3091 3092 3094
3082 3079 3075 3073 3068 3066 3063 3062 3062 3064 3064 3065 3063 3062 3061 3060 3059 3060 3061 3063 3065 3067 3067 3068 3068 3073 3076 3076 3078 3079 3083 3087 3090 3092 3089 3087 3087 3081 3080 3082 3083 3085 3085 3086 3087
3081 3079 3076 3073 3069 3067 3064 3064 3065 3063 3067 3066 3064 3062 3062 3062 3060 3061 3062 3063 3066 3068 3068 3068 3069 3070 3070 3074 3077 3080 3082 3085 3089 3087 3079 3079 3080 3077 3077 3078 3079 3079 3079 3081 3083
3081 3079 3077 3074 3070 3068 3066 3066 3065 3066 3065 3065 3064 3063 3062 3061 3060 3058 3060 3060 3062 3064 3065 3067 3068 3067 3069 3073 3076 3077 3079 3078 3077 3072 3072 3077 3074 3073 3072 3072 3075 3074 3072 3073 3076
3080 3078 3077 3075 3071 3070 3068 3066 3068 3067 3067 3065 3063 3063 3063 3061 3061 3060 3059 3059 3060 3060 3063 3062 3063 3063 3066 3070 3073 3074 3075 3079 3078 3075 3074 3070 3070 3069 3066 3067 3068 3069 3070 3071 3072
3079 3078 3076 3075 3072 3071 3069 3068 3068 3067 3065 3064 3064 3062 3061 3060 3060 3058 3055 3052 3055 3055 3058 3057 3057 3060 3063 3066 3069 3068 3073 3076 3076 3074 3071 3063 3066 3063 3064 3066 3067 3067 3067 3068 3068
3077 3076 3076 3074 3073 3071 3069 3068 3067 3066 3065 3064 3062 3060 3060 3059 3057 3055 3053 3051 3051 3051 3053 3056 3057 3059 3060 3058 3062 3066 3067 3069 3071 3071 3066 3059 3060 3061 3064 3064 3063 3064 3064 3064 3065
3075 3075 3074 3073 3073 3070 3069 3067 3066 3064 3063 3061 3058 3056 3056 3057 3054 3052 3049 3047 3045 3047 3047 3051 3052 3053 3053 3055 3058 3061 3063 3066 3067 3068 3068 3067 3063 3060 3061 3061 3062 3062 3062 3062 3062
3072 3072 3072 3071 3071 3069 3067 3066 3064 3062 3061 3058 3056 3053 3053 3053 3052 3046 3045 3046 3043 3044 3044 3043 3047 3051 3052 3054 3053 3053 3055 3059 3063 3065 3063 3064 3060 3058 3059 3060 3060 3060 3060 3060 3060
3071 3070 3070 3069 3069 3067 3065 3064 3062 3059 3058 3055 3052 3049 3049 3048 3047 3043 3042 3041 3039 3038 3037 3038 3038 3039 3043 3042 3042 3045 3047 3052 3056 3055 3058 3054 3057 3057 3057 3056 3056 3057 3058 3056 3056
3067 3068 3067 3067 3066 3065 3063 3061 3059 3056 3054 3051 3047 3046 3045 3043 3041 3039 3037 3035 3035 3035 3033 3030 3028 3033 3037 3038 3040 3040 3041 3044 3045 3048 3050 3052 3051 3052 3052 3053 3054 3055 3052 3051 3051
3064 3065 3065 3064 3063 3062 3061 3058 3056 3052 3050 3047 3043 3041 3039 3037 3037 3031 3031 3031 3030 3030 3028 3026 3025 3028 3031 3032 3035 3036 3037 3038 3040 3042 3043 3046 3040 3045 3044 3045 3045 3046 3046 3045 3043
3058 3061 3061 3061 3060 3059 3057 3054 3052 3049 3045 3041 3037 3034 3032 3030 3026 3024 3022 3021 3022 3022 3023 3024 3020 3025 3027 3028 3030 3031 3027 3032 3033 3035 3037 3035 3036 3039 3038 3038 3038 3038 3037 3038 3038